Temp
72 72 71 72 73 73 73 73 73 73 74 75 76 76 74 74 74 73 70 67 65 62 62 61 58 58 56 55 55 56 55 56 54 56 59 58 56 56 58 57 58 56 58
69 70 68 71 72 71 71 73 74 74 74 76 76 75 75 75 73 65 64 64 62 60 59 57 56 56 54 55 54 54 54 54 55 52 55 56 55 57 57 55 58 63 58
66 65 66 69 70 69 70 72 74 74 76 76 75 75 67 68 65 63 62 61 60 58 56 54 54 53 50 51 50 48 50 55 55 54 53 55 56 55 54 54 54 54 61
63 63 65 65 69 70 70 71 73 75 75 75 72 66 63 61 59 56 54 55 54 52 52 51 51 50 49 50 52 52 54 54 54 54 53 53 53 53 51 48 48 51 52
59 61 62 64 69 70 69 70 72 73 75 71 67 64 62 59 57 54 52 50 50 48 48 49 49 52 54 53 51 52 54 54 54 54 52 52 49 47 45 47 47 49 51
56 58 62 64 68 66 67 68 69 71 72 66 64 62 57 58 51 53 53 50 49 47 47 47 49 52 52 52 52 52 51 52 50 52 49 46 45 44 45 45 46 46 44
54 58 62 61 66 65 66 67 68 69 70 64 61 58 54 52 48 49 50 49 47 47 45 44 45 46 47 50 51 52 52 52 52 49 46 45 44 45 44 44 45 46 45
53 57 60 60 65 65 64 65 67 62 61 58 54 52 50 49 47 47 48 48 46 46 45 46 44 48 50 51 52 49 49 50 50 53 48 48 48 48 46 46 46 47 49
53 57 60 60 64 64 63 65 57 54 53 52 50 49 48 47 46 47 48 46 46 48 48 48 48 48 46 50 52 50 49 48 50 50 50 48 48 47 46 43 48 47 45
52 55 59 60 64 64 61 54 53 51 50 49 48 48 48 47 45 47 48 47 46 48 47 46 46 46 44 49 52 51 49 50 53 50 48 47 45 48 47 46 48 48 46
53 56 59 60 62 55 52 51 50 49 48 47 46 47 47 47 46 45 45 45 45 46 47 46 46 44 44 45 47 49 46 46 52 52 52 52 52 51 51 51 53 50 46
52 55 55 56 53 51 50 49 48 47 46 45 44 42 43 45 45 44 43 43 45 48 46 46 46 44 44 45 47 45 46 46 52 52 50 49 49 49 51 51 50 51 49
51 54 53 52 50 49 47 46 45 44 43 42 41 40 40 42 42 43 43 43 45 45 47 46 44 44 45 48 48 49 51 52 51 49 48 48 49 51 51 51 51 51 50
50 48 48 46 45 46 46 45 44 42 41 40 39 39 39 39 39 40 40 42 46 46 46 45 47 48 48 48 52 53 53 53 51 49 49 50 51 50 49 51 52 49 48
44 44 44 44 43 42 42 43 42 42 42 40 40 40 39 37 38 37 42 47 46 47 48 49 51 51 52 52 52 53 53 53 51 50 49 49 50 50 49 50 51 48 46
39 39 40 40 39 39 37 36 38 39 40 40 41 41 39 41 41 41 43 42 42 42 51 52 52 52 52 52 51 50 51 51 50 50 49 49 48 48 48 50 50 47 46
38 39 38 38 37 37 37 36 34 36 38 38 38 39 40 40 41 40 40 40 41 45 52 52 52 52 52 51 51 51 49 49 49 49 48 48 49 49 50 49 49 49 46
40 40 39 38 38 38 38 38 39 36 34 35 39 39 39 39 38 40 40 44 53 52 54 53 52 52 52 51 51 50 49 49 48 47 47 47 46 48 48 49 48 46 46
40 39 39 39 40 40 39 38 38 37 36 36 37 40 40 38 39 41 43 54 53 53 54 53 54 53 53 52 51 51 49 47 48 47 46 45 45 48 47 48 47 44 45
39 39 39 38 37 37 37 36 36 36 38 39 39 39 42 43 49 52 53 54 54 54 54 54 54 54 54 54 53 52 49 48 47 47 46 44 45 47 47 47 47 46 47
38 38 39 38 37 36 36 36 36 38 39 40 43 47 40 54 53 53 54 54 54 54 53 54 55 55 55 53 52 51 49 48 47 46 46 44 44 45 48 47 48 47 46
42 42 42 41 41 40 39 42 46 47 48 48 49 47 42 54 53 53 53 53 55 55 55 54 53 52 51 49 48 47 46 46 47 47 46 45 43 45 46 47 47 47 46
47 48 49 48 49 47 50 51 51 52 52 53 53 53 54 53 53 53 53 54 54 54 54 54 52 51 50 48 47 45 43 42 44 44 45 45 44 45 45 45 46 46 46
55 54 53 53 53 52 52 52 54 51 55 56 55 55 54 54 53 52 53 53 52 52 51 50 48 48 47 46 46 45 40 36 43 42 45 46 45 45 46 46 46 47 46
60 58 58 57 57 56 57 57 57 57 57 56 55 55 55 54 54 53 53 53 52 51 51 50 48 46 45 43 43 42 34 33 38 34 43 46 46 45 45 45 46 46 45
60 59 59 59 59 59 58 57 57 57 56 56 56 55 55 54 54 54 53 53 52 51 50 49 48 47 45 43 40 34 33 33 36 34 42 46 44 45 44 45 45 45 45
MSLP
1003.53 1003.31 1003.23 1003.04 1002.81 1002.53 1002.29 1001.98 1001.86 1001.85 1001.82 1001.92 1001.86 1002.07 1002.23 1002.63 1002.91 1003.35 1003.77 1004.73 1005.76 1006.40 1007.33 1007.71 1008.91 1009.91 1010.84 1011.37 1011.99 1012.41 1012.59 1012.75 1013.41 1013.65 1013.74 1014.31 1014.36 1014.40 1014.60 1014.48 1014.09 1013.87 1013.55
1003.78 1002.93 1002.85 1002.72 1002.41 1002.42 1002.24 1001.87 1001.49 1001.39 1001.31 1001.38 1001.47 1001.68 1001.92 1002.08 1002.42 1003.72 1004.48 1005.07 1005.96 1006.82 1007.90 1008.12 1009.30 1010.03 1011.27 1012.22 1012.85 1013.65 1013.59 1013.70 1014.15 1014.43 1014.18 1014.14 1014.32 1014.52 1014.62 1014.54 1013.96 1013.58 1013.49
1004.06 1003.59 1002.27 1002.36 1001.94 1002.15 1002.15 1001.73 1001.24 1000.95 1000.66 1000.75 1000.89 1001.39 1002.10 1002.52 1003.23 1004.26 1005.63 1005.66 1006.57 1006.96 1007.59 1008.32 1008.76 1010.31 1011.33 1012.53 1013.23 1014.10 1014.28 1014.29 1014.23 1014.71 1014.36 1014.26 1014.50 1014.82 1014.88 1014.75 1014.46 1014.11 1013.66
1004.06 1003.40 1002.41 1002.12 1001.56 1001.67 1001.76 1001.46 1001.00 1000.55 1000.35 1000.23 1000.87 1002.11 1002.92 1003.51 1004.41 1005.11 1006.40 1007.74 1007.98 1008.33 1009.79 1009.98 1008.47 1009.60 1011.29 1012.40 1013.05 1013.63 1013.62 1014.30 1015.07 1014.44 1014.38 1014.80 1015.17 1015.46 1015.57 1015.84 1015.33 1014.52 1013.91
1004.19 1003.26 1002.70 1001.78 1001.38 1001.27 1001.55 1001.28 1000.74 1000.36 1000.04 1000.39 1001.50 1002.53 1003.34 1004.06 1004.97 1005.59 1006.30 1008.46 1009.23 1009.92 1009.72 1011.27 1010.49 1010.02 1011.80 1012.72 1012.94 1013.19 1013.08 1014.04 1014.46 1014.43 1015.24 1015.41 1016.11 1016.44 1016.76 1016.43 1015.75 1014.96 1014.05
1003.96 1003.10 1002.24 1001.71 1001.07 1001.11 1001.36 1001.26 1000.75 1000.36 1000.06 1001.17 1001.74 1002.71 1003.89 1004.71 1005.67 1006.33 1006.23 1006.92 1010.03 1010.04 1010.83 1012.36 1012.18 1012.40 1012.65 1013.39 1012.74 1013.25 1013.22 1014.00 1014.59 1014.93 1015.87 1016.27 1017.26 1017.02 1017.00 1016.52 1015.73 1015.19 1014.62
1003.62 1002.64 1001.79 1001.61 1000.77 1000.92 1001.11 1001.00 1000.62 1000.53 1000.59 1001.46 1002.62 1003.69 1004.72 1005.91 1006.65 1007.24 1007.61 1008.52 1009.48 1010.35 1011.72 1013.01 1013.14 1013.57 1013.45 1013.78 1013.48 1013.71 1014.26 1014.68 1014.96 1015.83 1016.32 1017.15 1017.25 1017.32 1017.22 1016.59 1015.96 1015.24 1015.20
1002.94 1002.00 1001.35 1001.19 1000.41 1000.50 1000.77 1000.64 1000.59 1001.38 1001.65 1002.27 1003.62 1004.56 1005.38 1006.82 1007.22 1007.64 1008.32 1008.85 1010.33 1011.85 1012.93 1012.79 1011.97 1013.75 1014.41 1014.22 1013.48 1014.35 1014.92 1015.27 1015.63 1015.74 1016.36 1016.80 1017.03 1017.22 1017.20 1016.88 1016.11 1015.45 1015.00
1001.89 1001.23 1000.74 1000.77 1000.25 1000.22 1000.44 1000.47 1001.78 1002.40 1002.96 1003.72 1004.74 1005.59 1006.39 1007.94 1008.38 1008.67 1009.12 1010.04 1011.41 1012.36 1013.48 1014.06 1012.97 1013.23 1013.66 1013.75 1014.31 1014.58 1015.33 1015.76 1015.77 1015.92 1016.30 1016.80 1016.91 1017.00 1017.10 1017.02 1016.28 1015.83 1015.50
1001.26 1000.72 1000.19 1000.12 999.92 1000.03 1000.47 1001.63 1002.68 1003.34 1003.93 1004.94 1005.95 1006.98 1007.95 1008.94 1009.45 1009.77 1010.39 1010.47 1011.62 1013.01 1013.99 1014.24 1013.60 1013.17 1013.95 1014.32 1014.95 1015.02 1015.25 1015.47 1015.39 1016.01 1016.67 1016.60 1016.62 1016.78 1016.71 1016.63 1016.11 1016.12 1016.15
1000.45 1000.24 999.84 999.93 999.59 1000.49 1001.35 1002.38 1003.13 1004.01 1004.82 1006.08 1006.99 1008.02 1009.08 1009.83 1010.38 1010.85 1012.48 1011.47 1012.68 1013.39 1013.67 1014.74 1014.55 1014.40 1014.61 1015.21 1015.38 1015.30 1015.57 1015.80 1015.69 1016.21 1016.31 1016.53 1016.57 1016.65 1016.31 1015.75 1016.11 1016.63 1016.83
1000.02 999.88 999.76 999.62 1000.29 1001.12 1001.99 1003.26 1003.93 1004.72 1005.67 1007.16 1007.95 1009.34 1010.66 1011.04 1011.45 1011.58 1013.03 1012.55 1013.80 1014.36 1014.40 1015.69 1015.39 1015.42 1015.19 1015.84 1015.72 1015.48 1015.60 1015.86 1016.05 1016.43 1017.04 1017.01 1016.85 1016.67 1016.31 1016.34 1016.83 1017.06 1016.97
999.50 999.60 999.93 1000.40 1001.10 1001.89 1002.87 1003.95 1004.91 1005.74 1006.60 1008.03 1008.99 1010.44 1011.72 1012.47 1012.57 1013.03 1014.28 1014.61 1015.24 1015.32 1015.89 1016.08 1015.73 1015.03 1015.88 1016.19 1015.66 1015.92 1015.97 1016.42 1016.66 1017.33 1017.20 1017.17 1016.83 1016.96 1016.89 1016.77 1017.00 1017.01 1016.81
999.27 999.99 1000.75 1001.58 1002.70 1003.50 1004.17 1004.90 1005.66 1006.66 1007.60 1008.83 1009.99 1011.25 1012.27 1013.12 1013.69 1014.79 1015.67 1016.00 1015.74 1016.39 1016.41 1016.21 1015.98 1015.71 1016.29 1016.51 1016.50 1016.88 1017.02 1017.03 1017.12 1017.71 1017.79 1017.43 1017.39 1017.59 1017.63 1017.19 1017.19 1017.13 1017.15
1000.13 1001.17 1002.02 1003.02 1003.74 1004.85 1005.74 1006.57 1007.05 1008.11 1008.44 1009.14 1010.65 1011.64 1012.34 1013.68 1014.98 1015.69 1015.83 1016.36 1016.03 1016.08 1015.93 1015.86 1016.03 1016.85 1016.59 1017.36 1017.61 1017.21 1017.34 1017.60 1017.81 1018.11 1018.77 1018.54 1018.33 1018.22 1018.09 1017.49 1017.62 1017.57 1017.67
1001.63 1002.73 1003.62 1004.35 1005.33 1006.20 1007.02 1008.39 1009.47 1009.78 1010.49 1011.11 1011.71 1012.18 1013.75 1014.22 1015.30 1016.03 1015.40 1016.10 1016.08 1016.37 1016.39 1016.54 1017.03 1016.84 1017.53 1017.53 1017.44 1018.11 1018.18 1018.36 1018.76 1019.55 1019.60 1019.17 1019.07 1018.71 1018.05 1017.92 1018.21 1018.20 1018.17
1002.91 1004.04 1004.94 1005.73 1006.77 1007.64 1008.64 1009.35 1010.46 1012.48 1012.62 1013.12 1013.95 1014.48 1014.71 1014.87 1015.52 1016.13 1016.51 1016.87 1016.75 1016.59 1016.72 1017.17 1017.34 1017.66 1017.86 1018.21 1018.66 1019.02 1019.23 1019.50 1020.43 1020.31 1020.00 1020.00 1019.47 1018.89 1018.48 1018.34 1018.42 1018.52 1018.41
1004.48 1005.36 1006.01 1007.13 1008.01 1008.95 1009.69 1010.73 1011.56 1012.54 1013.93 1015.67 1016.35 1016.23 1016.60 1016.39 1017.06 1017.22 1017.23 1016.84 1016.94 1017.42 1017.43 1017.92 1018.40 1018.69 1018.89 1018.75 1019.03 1019.77 1020.57 1021.05 1021.05 1021.03 1020.85 1020.26 1019.80 1019.48 1019.30 1018.83 1018.69 1018.86 1018.84
1005.80 1006.72 1007.46 1008.33 1009.29 1010.11 1011.11 1012.13 1013.12 1014.02 1015.09 1016.19 1017.12 1017.75 1017.61 1017.68 1017.67 1017.58 1017.40 1017.39 1017.87 1018.16 1018.41 1019.04 1018.96 1018.55 1018.68 1019.41 1020.18 1020.97 1021.33 1021.31 1021.47 1021.43 1021.38 1020.94 1020.39 1020.14 1019.82 1019.41 1019.08 1019.16 1019.06
1007.46 1008.12 1008.83 1009.75 1010.85 1011.76 1012.76 1013.63 1014.47 1015.32 1016.14 1016.98 1017.80 1018.22 1018.27 1018.30 1017.85 1017.84 1018.08 1018.36 1018.73 1019.07 1019.38 1018.93 1019.15 1019.69 1020.10 1020.64 1021.11 1021.50 1021.65 1021.42 1021.44 1021.85 1021.90 1021.69 1020.95 1020.69 1020.40 1019.99 1019.74 1019.75 1019.19
1008.77 1009.81 1010.48 1011.29 1012.29 1013.18 1014.10 1015.07 1015.91 1016.30 1017.04 1017.71 1017.86 1017.95 1017.65 1017.70 1018.17 1018.66 1019.03 1019.23 1019.40 1019.38 1019.69 1020.15 1020.48 1020.78 1021.09 1021.48 1021.93 1022.09 1022.00 1022.14 1022.09 1022.13 1022.16 1022.06 1021.54 1021.32 1020.88 1020.34 1020.11 1019.74 1019.69
1010.00 1010.81 1011.58 1012.50 1013.55 1014.45 1015.39 1015.78 1015.98 1016.33 1016.91 1017.33 1017.59 1017.97 1018.11 1018.57 1019.08 1019.44 1019.84 1020.19 1020.44 1020.59 1020.81 1021.14 1021.57 1021.94 1022.53 1022.95 1022.84 1022.83 1023.20 1023.20 1022.90 1022.64 1022.51 1022.38 1022.23 1021.73 1021.34 1020.83 1020.49 1020.24 1020.07
1010.79 1011.28 1012.02 1013.09 1013.88 1014.45 1015.02 1015.51 1015.84 1016.29 1016.76 1017.32 1017.90 1018.54 1019.11 1019.52 1019.94 1020.24 1020.50 1020.90 1021.17 1021.31 1021.67 1021.89 1022.52 1023.18 1023.49 1023.69 1024.11 1024.39 1024.46 1024.48 1023.99 1023.62 1023.19 1022.82 1022.68 1022.18 1021.82 1021.45 1021.06 1020.74 1020.46
1011.37 1012.01 1012.63 1013.41 1014.14 1014.68 1015.14 1015.67 1016.19 1016.65 1017.19 1017.78 1018.33 1018.84 1019.45 1020.05 1020.52 1020.83 1021.21 1021.66 1022.13 1022.46 1022.98 1023.66 1024.10 1024.29 1024.35 1024.65 1024.78 1025.11 1025.71 1025.64 1025.05 1024.25 1023.61 1023.15 1023.06 1022.68 1022.33 1022.06 1021.56 1021.21 1021.12
1011.66 1012.42 1013.07 1013.65 1014.30 1014.85 1015.29 1015.83 1016.46 1017.02 1017.57 1018.23 1018.85 1019.40 1019.95 1020.45 1020.92 1021.34 1021.93 1022.40 1022.83 1023.49 1024.02 1024.41 1024.78 1025.24 1025.65 1025.70 1025.94 1026.23 1026.26 1025.90 1025.54 1025.10 1023.98 1023.62 1023.26 1023.23 1023.11 1022.71 1022.23 1021.94 1021.86
1012.67 1013.28 1013.90 1014.43 1014.83 1015.31 1015.85 1016.40 1017.04 1017.67 1018.24 1018.78 1019.43 1020.01 1020.50 1021.00 1021.58 1022.02 1022.51 1023.11 1023.71 1024.27 1024.73 1025.23 1025.72 1025.99 1026.28 1026.65 1027.10 1027.06 1026.68 1026.11 1025.69 1025.07 1024.26 1023.99 1024.04 1023.90 1023.68 1023.27 1022.98 1022.74 1022.63
Wind_Speed
11 9 10 10 8 8 8 6 8 11 10 10 10 9 11 11 13 13 11 6 11 11 9 12 12 9 6 5 3 1 4 3 3 1 3 2 1 1 2 5 5 6 4
16 12 11 10 7 6 8 9 9 9 10 9 8 9 8 8 10 3 7 11 13 13 10 12 12 8 9 6 5 5 5 4 3 2 1 2 1 4 3 6 3 5 5
16 19 8 13 9 7 9 10 9 9 9 10 8 5 4 5 7 10 3 9 8 11 13 16 13 12 11 8 8 5 2 2 2 2 2 1 3 3 5 6 7 5 6
17 15 16 9 8 6 9 10 10 8 9 8 5 9 10 13 15 16 16 13 9 11 11 4 14 15 13 11 8 5 5 4 3 2 2 3 5 6 6 5 6 4 6
17 16 16 9 9 5 7 10 10 8 8 8 11 11 11 14 12 18 18 16 15 12 10 4 8 18 18 12 7 6 4 3 1 3 4 7 7 5 6 5 4 5 6
17 17 14 14 8 5 7 12 10 9 6 12 11 12 11 7 11 9 15 21 16 16 16 10 7 15 16 17 20 19 12 7 7 7 6 6 5 4 4 5 4 6 4
16 17 15 14 10 8 10 11 11 7 4 11 11 11 12 13 14 17 21 13 15 15 15 13 10 9 11 8 17 19 17 14 16 7 8 4 2 3 4 6 5 6 4
16 17 14 12 12 9 10 10 2 4 6 11 13 13 15 12 20 22 21 16 14 12 11 10 18 9 7 6 13 12 9 8 7 6 6 4 3 2 4 4 5 7 3
14 16 13 11 12 10 10 3 8 9 10 11 12 14 16 14 21 23 19 16 14 13 11 8 8 10 6 12 8 10 8 5 4 4 1 2 6 4 7 4 6 7 4
14 15 13 10 12 9 4 12 10 11 13 11 15 14 19 15 15 18 15 13 14 11 9 8 13 11 10 10 7 7 8 5 4 4 3 6 7 6 9 6 3 6 5
12 14 8 12 6 12 13 12 14 14 16 15 16 15 15 14 13 18 12 12 11 10 10 7 6 15 17 15 10 6 5 3 4 3 5 5 5 5 3 4 5 5 4
10 10 12 6 10 11 15 12 15 16 18 16 17 14 10 13 16 24 15 21 12 8 10 5 8 14 14 10 6 5 4 4 3 5 4 4 3 4 5 5 6 4 4
10 9 9 12 12 14 16 15 13 14 15 14 14 14 13 11 14 28 21 17 12 9 7 10 12 16 12 9 16 16 11 6 5 4 4 4 4 4 6 5 4 6 7
10 13 14 15 14 12 10 10 12 12 13 14 14 14 12 12 13 11 10 9 12 9 10 5 5 11 9 6 7 7 5 6 7 6 4 4 5 4 3 4 6 5 4
17 15 15 13 16 14 13 9 11 10 11 15 13 14 15 13 11 13 10 6 6 6 6 3 5 4 8 7 6 8 8 8 8 7 6 5 5 4 3 4 7 5 5
17 13 13 13 13 14 16 19 31 26 25 23 20 18 12 21 20 11 12 6 6 7 3 8 7 7 7 7 9 9 9 10 8 6 5 5 4 4 3 4 7 6 5
18 15 14 15 14 15 15 17 20 23 33 29 24 20 20 17 19 13 8 1 2 2 8 7 7 8 8 9 8 8 7 8 7 6 6 5 5 5 5 4 6 5 4
18 24 14 14 14 15 16 16 16 17 17 15 18 16 17 18 9 6 5 5 10 7 8 8 8 7 8 9 9 8 6 5 6 6 5 6 7 5 5 6 5 5 5
16 14 14 14 14 17 15 16 15 17 16 15 13 12 9 5 2 2 2 8 8 8 8 7 6 8 9 7 7 6 4 4 5 6 6 7 6 5 5 6 5 7 5
17 27 21 15 16 16 15 16 16 16 15 13 11 8 5 5 5 8 8 8 8 8 7 8 9 8 8 8 7 7 5 5 6 5 5 5 5 6 6 6 6 6 6
14 16 25 17 16 16 16 15 14 13 13 11 9 7 6 10 10 9 8 7 7 8 9 9 9 9 9 8 7 7 8 7 5 5 4 5 7 4 7 5 5 5 7
16 16 17 18 16 16 14 12 12 13 12 10 7 6 12 10 9 10 9 9 9 9 9 10 10 11 10 9 9 9 7 7 7 6 5 5 5 6 5 5 6 6 5
17 17 17 16 16 16 13 12 12 12 12 13 13 11 10 10 10 9 10 10 9 10 9 10 10 9 9 10 9 8 8 8 8 8 6 5 5 7 5 6 6 7 8
17 17 16 15 14 13 14 13 12 12 13 12 12 11 11 11 11 12 11 11 11 11 12 11 10 13 11 10 8 9 7 6 7 7 10 6 6 8 7 7 7 9 8
13 14 14 14 13 12 12 13 13 12 12 12 12 11 11 11 11 11 10 10 11 10 11 10 9 13 14 15 13 11 9 9 8 8 6 9 8 10 8 7 8 7 10
14 15 14 12 10 11 11 12 12 12 12 11 11 11 11 11 10 10 10 11 10 10 11 9 12 15 14 11 11 9 10 11 10 10 5 7 8 6 7 8 12 8 10
Wind_Direction
287 268 271 253 272 278 283 262 267 235 245 239 240 235 241 229 229 223 225 145 140 126 141 127 115 129 117 102 89 60 73 55 110 84 108 149 75 207 295 285 280 284 278
319 264 269 266 256 269 281 280 279 268 230 237 240 235 239 246 237 148 163 156 147 138 135 113 118 112 97 93 54 49 49 38 42 31 122 40 159 64 288 294 329 310 338
304 307 268 282 225 240 265 270 270 272 238 215 233 227 107 113 98 95 158 141 146 143 135 136 131 122 107 103 89 69 62 62 72 160 74 44 61 24 358 8 343 345 329
296 294 286 278 241 229 252 263 263 260 271 233 128 112 106 98 96 93 84 32 76 81 54 107 120 122 124 137 125 117 132 100 225 122 76 66 60 22 26 356 328 341 313
292 289 292 267 242 235 270 271 269 260 255 132 126 126 130 122 124 123 116 115 102 54 85 50 57 103 116 129 136 131 136 126 9 83 50 54 38 16 8 331 322 335 315
291 285 275 281 250 238 257 265 264 262 261 136 135 129 120 112 127 139 140 127 136 125 113 104 101 103 96 94 97 82 71 84 63 61 59 60 41 14 342 312 328 341 326
278 275 271 282 236 240 252 256 254 253 207 133 118 117 104 110 101 106 113 119 119 119 120 131 100 90 91 113 98 83 73 73 73 80 80 62 50 346 320 325 334 327 17
263 266 265 266 247 230 245 251 199 126 96 102 105 106 110 112 115 114 110 104 102 105 120 133 132 155 167 153 98 96 88 84 89 98 116 143 153 19 322 317 328 314 93
256 267 250 257 248 232 248 227 106 107 92 93 100 107 112 112 120 119 114 114 114 120 113 150 122 112 88 113 114 116 126 129 105 102 62 272 272 275 264 306 2 345 11
264 265 246 253 245 226 133 109 106 106 100 97 97 103 111 115 109 117 120 119 117 118 105 66 74 84 74 117 108 107 93 78 115 133 246 253 242 259 235 234 353 334 7
257 255 266 253 215 111 111 116 114 111 106 104 102 97 100 104 93 82 86 101 107 110 107 87 80 84 79 69 68 74 77 29 340 58 61 38 50 22 8 349 17 55 24
250 240 253 127 114 114 113 113 112 116 109 109 101 88 74 89 74 84 70 74 66 101 90 104 96 98 90 91 79 61 26 3 55 54 47 45 30 29 3 356 99 101 73
219 217 122 110 110 118 120 118 112 112 113 110 104 98 96 82 81 81 71 67 81 99 121 136 126 93 85 68 63 51 47 51 55 48 38 46 13 49 5 351 143 121 83
132 105 103 98 95 97 98 106 115 117 114 112 112 108 103 94 87 84 80 98 95 108 118 123 109 81 82 75 56 70 70 66 58 39 21 23 23 17 18 323 66 40 34
100 102 99 99 98 91 75 78 96 91 111 120 117 115 116 107 106 116 124 148 147 147 113 85 81 101 84 80 83 63 51 53 52 36 19 9 28 347 16 0 55 46 23
97 95 101 98 95 93 91 82 66 75 81 89 96 104 96 109 125 133 117 83 113 144 132 83 82 77 82 86 73 64 52 48 47 35 18 11 358 350 19 29 64 38 17
100 100 96 96 98 100 98 99 100 78 75 73 81 90 94 102 96 93 92 110 168 27 84 84 79 75 72 71 63 58 61 54 44 38 29 1 345 8 11 36 60 40 13
96 96 96 99 102 104 104 105 106 104 104 96 76 93 97 94 110 150 182 211 80 77 85 85 88 92 91 74 63 63 42 57 59 38 17 11 353 17 3 14 47 45 17
97 97 99 99 101 102 101 101 100 102 101 102 103 93 80 70 174 238 175 88 93 90 83 87 92 77 68 72 81 76 73 65 76 59 23 0 2 356 10 15 25 34 21
90 96 97 97 100 99 99 101 103 101 102 106 113 130 169 211 117 90 86 84 87 89 97 80 69 65 65 67 71 67 52 53 57 58 43 4 353 1 6 9 4 42 12
95 96 104 96 96 96 95 99 105 109 112 122 136 163 163 101 99 98 102 95 83 72 68 68 65 63 61 66 63 52 54 37 32 53 36 21 358 6 357 15 6 38 13
98 99 100 101 104 104 113 123 122 116 117 123 122 94 83 94 95 93 87 85 84 80 78 75 72 62 53 46 38 45 38 27 22 24 25 41 1 346 10 3 14 12 35
106 105 101 104 115 117 111 109 111 113 114 107 105 106 105 101 99 96 90 84 79 72 68 71 72 76 69 59 53 43 36 10 5 4 350 42 4 354 28 1 18 22 12
106 108 107 105 108 110 111 117 123 117 113 114 114 109 102 97 96 91 88 84 82 78 73 70 65 61 53 54 52 53 33 3 346 342 336 21 31 10 14 15 11 30 13
111 106 110 110 109 112 113 106 107 108 103 103 106 108 105 101 97 92 90 90 84 85 85 82 75 69 59 53 47 31 6 357 354 326 328 34 33 23 8 26 5 25 27
93 98 107 119 124 112 107 105 104 106 106 106 106 106 105 104 102 100 93 91 91 88 86 79 76 72 64 52 36 15 359 348 347 346 346 50 21 34 9 30 11 32 28